Location: 81360 Arifat, France
(43.7204°N, 2.3408°E)
Time: 21:53:22
(UTC+01:00)

Altair - Visible Passes

Search period start: 05 December 2025 00:00
Search period end: 15 December 2025 00:00
Orbit: 1501 x 1682 km, 47.2° (Epoch: 05 December)

Date Brightness Start Highest point End Pass type
(mag) Time Alt. Az. Time Alt. Az. Time Alt. Az.
05 Dec 8.1 03:50:26 48° ENE 03:50:26 48° ENE 03:56:41 10° ENE visible
05 Dec 7.4 05:48:27 39° WNW 05:52:37 77° NNE 06:01:54 10° E visible
06 Dec 8.6 03:26:37 36° ENE 03:26:37 36° ENE 03:31:26 10° ENE visible
06 Dec 7.4 05:24:39 52° WNW 05:27:21 76° N 05:36:38 10° E visible
06 Dec 7.7 07:22:47 10° WNW 07:32:03 64° SSW 07:41:04 10° SE visible
07 Dec 9.0 03:02:49 26° ENE 03:02:49 26° ENE 03:06:11 10° ENE visible
07 Dec 7.4 05:00:50 67° NW 05:02:04 75° N 05:11:23 10° E visible
07 Dec 7.6 06:58:51 15° WNW 07:06:52 68° SSW 07:15:57 10° SE visible
08 Dec 9.3 02:39:01 18° ENE 02:39:01 18° ENE 02:40:58 10° ENE visible
08 Dec 7.4 04:37:03 73° NNE 04:37:03 73° NNE 04:46:08 10° E visible
08 Dec 7.5 06:35:04 22° WNW 06:41:41 71° SSW 06:50:49 10° SE visible
09 Dec 9.7 02:15:15 12° ENE 02:15:15 12° ENE 02:15:44 10° ENE visible
09 Dec 7.7 04:13:16 61° ENE 04:13:16 61° ENE 04:20:52 10° E visible
09 Dec 7.4 06:11:18 31° WNW 06:16:29 75° SSW 06:25:40 10° SE visible
10 Dec 8.2 03:49:31 46° ENE 03:49:31 46° ENE 03:55:36 10° E visible
10 Dec 7.4 05:47:32 43° WNW 05:51:16 79° SSW 06:00:30 10° ESE visible
11 Dec 8.7 03:25:47 33° ENE 03:25:47 33° ENE 03:30:20 10° E visible
11 Dec 7.3 05:23:48 58° WNW 05:26:02 82° SSW 05:35:19 10° ESE visible
11 Dec 8.3 07:21:50 10° WNW 07:29:51 34° SW 07:37:46 10° SSE visible
12 Dec 9.1 03:02:05 23° E 03:02:05 23° E 03:05:04 10° E visible
12 Dec 7.3 05:00:07 79° W 05:00:49 86° SSW 05:10:08 10° ESE visible
12 Dec 8.1 06:58:09 16° W 07:04:45 37° SW 07:12:53 10° SSE visible
13 Dec 9.5 02:38:25 16° E 02:38:25 16° E 02:39:48 10° E visible
13 Dec 7.4 04:36:27 77° ESE 04:36:27 77° ESE 04:44:56 10° ESE visible
13 Dec 8.0 06:34:29 23° W 06:39:37 40° SW 06:47:57 10° SSE visible
14 Dec 7.8 04:12:49 56° ESE 04:12:49 56° ESE 04:19:43 10° ESE visible
14 Dec 7.9 06:10:52 32° W 06:14:29 43° SW 06:23:00 10° SSE visible
